• Join FlightAware (Why Join?)
  • Login
  • US Flag 
11:09AM EST


 

Airport Tracker/Info


-or-


 

Live Flight TrackerFlight Track Log ✈ SWA1301 ✈ 04-Jan-2014 ✈ KPHX - KBWI

Flight Track Log - Related Links

Times and Time Zones

All times are in EST time to prevent confusion due to time zone crossing. See the SWA1301 flight status page for this flight to view local times or setup timezone preferences in your user account.

Time Position Orientation Groundspeed Altitude Reporting Facility
EST Latitude Longitude Course Direction KTS MPH feet Rate Location/Type
08:38PM 33.4333 -112.0333 270° West 180 207 2,100  Level Phoenix TRACON
08:39PM 33.4333 -112.0833 270° West 176 203 3,400 1,980 Climbing Phoenix TRACON
08:40PM 33.4331 -112.1583 270° West 210 242 6,100 2,580 Climbing Albuquerque Center
08:41PM 33.4831 -112.1758 344° North 229 264 9,200 2,520 Climbing Albuquerque Center
08:42PM 33.5333 -112.1000 51° Northeast 321 369 11,000 2,640 Climbing Phoenix TRACON
08:44PM 33.5917 -111.8581 74° East 366 421 17,300 2,820 Climbing Albuquerque Center
08:45PM 33.6131 -111.7306 79° East 390 449 20,100 2,520 Climbing Albuquerque Center
08:46PM 33.6342 -111.6017 79° East 398 458 22,500 2,040 Climbing Albuquerque Center
08:47PM 33.6564 -111.4644 79° East 418 481 24,300 1,800 Climbing Albuquerque Center
08:48PM 33.6794 -111.3208 79° East 439 505 26,300 2,040 Climbing Albuquerque Center
08:49PM 33.7286 -111.1550 70° East 442 509 28,500 1,800 Climbing Albuquerque Center
08:50PM 33.7778 -111.0172 67° East 449 517 30,000 1,260 Climbing Albuquerque Center
08:51PM 33.8294 -110.8731 67° East 459 528 31,100 1,020 Climbing Albuquerque Center
08:52PM 33.8814 -110.7253 67° East 471 542 32,200 1,020 Climbing Albuquerque Center
08:53PM 33.9336 -110.5722 68° East 486 559 33,300 900 Climbing Albuquerque Center
08:54PM 33.9892 -110.4128 67° East 506 582 34,100 900 Climbing Albuquerque Center
08:55PM 34.0478 -110.2469 67° East 523 602 35,200 1,260 Climbing Albuquerque Center
08:56PM 34.1100 -110.0697 67° East 529 609 36,700 840 Climbing Albuquerque Center
08:57PM 34.1711 -109.8869 68° East 528 608 37,000 120 Climbing Albuquerque Center
08:58PM 34.2258 -109.7325 67° East 524 603 37,000  Level Albuquerque Center
08:59PM 34.2783 -109.5761 68° East 526 605 37,000  Level Albuquerque Center
09:00PM 34.3414 -109.3919 67° East 530 610 37,000  Level Albuquerque Center
09:01PM 34.3939 -109.2347 68° East 529 609 37,000  Level Albuquerque Center
09:02PM 34.4528 -109.0461 69° East 532 612 37,000  Level Albuquerque Center
09:03PM 34.4972 -108.8808 72° East 536 617 37,000  Level Albuquerque Center
09:04PM 34.5514 -108.6878 71° East 541 623 37,000  Level Albuquerque Center
09:05PM 34.5967 -108.5194 72° East 545 627 37,000  Level Albuquerque Center
09:06PM 34.6422 -108.3511 72° East 547 629 37,000  Level Albuquerque Center
09:07PM 34.6933 -108.1586 72° East 542 624 37,000  Level Albuquerque Center
09:08PM 34.7350 -108.0061 72° East 541 623 37,000  Level Albuquerque Center
09:09PM 34.7806 -107.8347 72° East 536 617 37,000  Level Albuquerque Center
09:11PM 34.8344 -107.6306 72° East 531 611 37,000  Level Albuquerque Center
09:12PM 34.8847 -107.4589 70° East 535 616 37,000  Level Albuquerque Center
09:13PM 34.9467 -107.2814 67° East 530 610 37,000  Level Albuquerque Center
09:14PM 35.0033 -107.1153 67° East 529 609 37,000  Level Albuquerque Center
09:15PM 35.0586 -106.9492 68° East 527 606 37,000  Level Albuquerque Center
09:16PM 35.1147 -106.7850 67° East 524 603 37,000  Level Albuquerque Center
09:17PM 35.1681 -106.6206 68° East 515 593 37,000  Level Albuquerque Center
09:18PM 35.2278 -106.4461 67° East 530 610 37,000  Level Albuquerque Center
09:19PM 35.2817 -106.2822 68° East 526 605 37,000  Level Albuquerque Center
09:20PM 35.3350 -106.1178 68° East 525 604 37,000  Level Albuquerque Center
09:21PM 35.3897 -105.9544 68° East 534 615 37,000  Level Albuquerque Center
09:22PM 35.4431 -105.7881 68° East 525 604 37,000  Level Albuquerque Center
09:23PM 35.5064 -105.5917 68° East 521 600 37,000  Level Albuquerque Center
09:24PM 35.5589 -105.4275 68° East 525 604 37,000  Level Albuquerque Center
09:25PM 35.6125 -105.2578 69° East 528 608 37,000  Level Albuquerque Center
09:26PM 35.6675 -105.0906 68° East 524 603 37,000  Level Albuquerque Center
09:27PM 35.7194 -104.9231 69° East 520 598 37,000  Level Albuquerque Center
09:28PM 35.7728 -104.7539 69° East 522 601 37,000  Level Albuquerque Center
09:29PM 35.8261 -104.5797 69° East 531 611 37,000  Level Albuquerque Center
09:30PM 35.8806 -104.4056 69° East 535 616 37,000  Level Albuquerque Center
09:31PM 35.9350 -104.2303 69° East 538 619 37,000  Level Albuquerque Center
09:32PM 35.9886 -104.0558 69° East 538 619 37,000  Level Albuquerque Center
09:33PM 36.0428 -103.8781 69° East 542 624 37,000  Level Albuquerque Center
09:34PM 36.0972 -103.7011 69° East 544 626 37,000  Level Albuquerque Center
09:35PM 36.1514 -103.5203 70° East 551 634 37,000  Level Albuquerque Center
09:36PM 36.2142 -103.3097 70° East 554 638 37,000  Level Albuquerque Center
09:37PM 36.2661 -103.1278 70° East 555 639 37,000  Level Albuquerque Center
09:38PM 36.3194 -102.9472 70° East 553 636 37,000  Level Albuquerque Center
09:39PM 36.3661 -102.7867 70° East 548 631 37,000  Level Albuquerque Center
09:40PM 36.4172 -102.6111 70° East 543 625 37,000  Level Albuquerque Center
09:41PM 36.4697 -102.4325 70° East 547 629 37,000  Level Albuquerque Center
09:42PM 36.5203 -102.2547 70° East 546 628 37,000  Level Albuquerque Center
09:43PM 36.5808 -102.0436 70° East 541 623 37,000  Level Albuquerque Center
09:44PM 36.6267 -101.8781 71° East 543 625 37,000  Level Albuquerque Center
09:45PM 36.6825 -101.6803 71° East 544 626 37,000  Level Albuquerque Center
09:46PM 36.7306 -101.5125 70° East 541 623 37,000  Level Albuquerque Center
09:47PM 36.7775 -101.3425 71° East 541 623 37,000  Level Albuquerque Center
09:49PM 36.8481 -101.0894 71° East 541 623 37,000 300 Level Kansas City Center
09:50PM 36.8961 -100.9147 71° East 552 635 37,700 780 Climbing Kansas City Center
09:51PM 36.9431 -100.7408 71° East 556 640 38,600 600 Climbing Kansas City Center
09:52PM 36.9978 -100.5389 71° East 554 638 39,000 180 Climbing Kansas City Center
09:53PM 37.0439 -100.3664 71° East 551 634 39,000  Level Kansas City Center
09:54PM 37.0958 -100.1658 72° East 548 631 39,000  Level Kansas City Center
09:55PM 37.1419 -99.9931 71° East 548 631 39,000  Level Kansas City Center
09:56PM 37.1861 -99.8203 72° East 547 629 39,000  Level Kansas City Center
09:57PM 37.2397 -99.6181 72° East 549 632 39,000  Level Kansas City Center
09:58PM 37.2814 -99.4550 72° East 547 629 39,000  Level Kansas City Center
09:59PM 37.3325 -99.2647 71° East 552 635 39,000  Level Kansas City Center
10:00PM 37.3769 -99.0836 73° East 547 629 39,000  Level Kansas City Center
10:01PM 37.4217 -98.8986 73° East 552 635 39,000  Level Kansas City Center
10:02PM 37.4689 -98.7169 72° East 551 634 39,000  Level Kansas City Center
10:03PM 37.5144 -98.5347 72° East 549 632 39,000  Level Kansas City Center
10:04PM 37.5692 -98.3147 73° East 550 633 39,000  Level Kansas City Center
10:05PM 37.6131 -98.1319 73° East 550 633 39,000  Level Kansas City Center
10:06PM 37.6589 -97.9417 73° East 551 634 39,000  Level Kansas City Center
10:07PM 37.7036 -97.7547 73° East 553 636 39,000  Level Kansas City Center
10:08PM 37.7486 -97.5683 73° East 553 636 39,000  Level Kansas City Center
10:09PM 37.7889 -97.3986 73° East 557 641 39,000  Level Kansas City Center
10:10PM 37.8325 -97.2133 73° East 555 639 39,000  Level Kansas City Center
10:11PM 37.8761 -97.0294 73° East 549 632 39,000  Level Kansas City Center
10:12PM 37.9278 -96.8064 74° East 552 635 39,000  Level Kansas City Center
10:13PM 37.9697 -96.6222 74° East 547 629 39,000  Level Kansas City Center
10:14PM 38.0125 -96.4369 74° East 548 631 39,000  Level Kansas City Center
10:15PM 38.0544 -96.2531 74° East 547 629 39,000  Level Kansas City Center
10:16PM 38.0961 -96.0639 74° East 544 626 39,000  Level Kansas City Center
10:17PM 38.1356 -95.8872 74° East 544 626 39,000  Level Kansas City Center
10:18PM 38.1817 -95.6811 74° East 545 627 39,000  Level Kansas City Center
10:19PM 38.2189 -95.5047 75° East 543 625 39,000  Level Kansas City Center
10:20PM 38.2642 -95.3011 74° East 540 621 39,000  Level Kansas City Center
10:21PM 38.3017 -95.1244 75° East 540 621 39,000  Level Kansas City Center
10:22PM 38.3408 -94.9456 74° East 545 627 39,000  Level Kansas City Center
10:23PM 38.3844 -94.7408 75° East 541 623 39,000  Level Kansas City Center
10:24PM 38.4211 -94.5650 75° East 541 623 39,000  Level Kansas City Center
10:25PM 38.4581 -94.3889 75° East 539 620 39,000  Level Kansas City Center
10:26PM 38.5006 -94.1839 75° East 536 617 39,000  Level Kansas City Center
10:27PM 38.5358 -94.0072 76° East 538 619 39,000  Level Kansas City Center
10:28PM 38.5772 -93.8022 75° East 536 617 39,000  Level Kansas City Center
10:29PM 38.6086 -93.6406 76° East 530 610 39,000  Level Kansas City Center
10:30PM 38.6458 -93.4550 76° East 532 612 39,000  Level Kansas City Center
10:31PM 38.6836 -93.2703 75° East 533 613 39,000  Level Kansas City Center
10:32PM 38.7200 -93.0858 76° East 531 611 39,000  Level Kansas City Center
10:33PM 38.7553 -92.9008 76° East 531 611 39,000  Level Kansas City Center
10:34PM 38.7908 -92.7175 76° East 529 609 39,000  Level Kansas City Center
10:35PM 38.8258 -92.5325 76° East 528 608 39,000  Level Kansas City Center
10:36PM 38.8603 -92.3458 77° East 530 610 39,000  Level Kansas City Center
10:38PM 38.8947 -92.1581 77° East 534 615 39,000  Level Kansas City Center
10:39PM 38.9294 -91.9722 76° East 533 613 39,000  Level Kansas City Center
10:40PM 38.9633 -91.7853 77° East 532 612 39,000  Level Kansas City Center
10:41PM 38.9975 -91.5942 77° East 535 616 39,000  Level Kansas City Center
10:42PM 39.0311 -91.4092 77° East 533 613 39,000  Level Kansas City Center
10:43PM 39.0642 -91.2231 77° East 532 612 39,000  Level Kansas City Center
10:44PM 39.0989 -91.0369 76° East 533 613 39,000  Level Kansas City Center
10:45PM 39.1369 -90.8161 77° East 530 610 39,000  Level Kansas City Center
10:46PM 39.1686 -90.6300 78° East 528 608 39,000  Level Kansas City Center
10:47PM 39.2003 -90.4439 78° East 528 608 39,000  Level Kansas City Center
10:48PM 39.2311 -90.2561 78° East 530 610 39,000  Level Kansas City Center
10:49PM 39.2547 -90.0672 81° East 530 610 39,000  Level Kansas City Center
10:50PM 39.2775 -89.8769 81° East 533 613 39,000  Level Kansas City Center
10:51PM 39.2997 -89.6886 81° East 532 612 39,000  Level Kansas City Center
10:52PM 39.3222 -89.5014 81° East 530 610 39,000  Level Kansas City Center
10:53PM 39.3442 -89.3158 81° East 526 605 39,000  Level Kansas City Center
10:54PM 39.3656 -89.1300 81° East 525 604 39,000  Level Kansas City Center
10:55PM 39.3858 -88.9453 82° East 523 602 39,000  Level Kansas City Center
10:56PM 39.4075 -88.7622 81° East 522 601 39,000  Level Kansas City Center
10:57PM 39.4311 -88.5511 82° East 523 602 39,000  Level Kansas City Center
10:58PM 39.4511 -88.3647 82° East 522 601 39,000  Level Kansas City Center
10:59PM 39.4703 -88.1758 82° East 524 603 39,000  Level Kansas City Center
11:00PM 39.4872 -88.0322 81° East 535 616 39,000  Level Indianapolis Center
11:01PM 39.5047 -87.8469 83° East 525 604 39,000  Level Indianapolis Center
11:02PM 39.5286 -87.6250 82° East 520 598 39,000  Level Indianapolis Center
11:03PM 39.5475 -87.4406 82° East 518 596 39,000  Level Indianapolis Center
11:04PM 39.5661 -87.2558 82° East 520 598 39,000  Level Indianapolis Center
11:05PM 39.5839 -87.0722 83° East 518 596 39,000  Level Indianapolis Center
11:06PM 39.6011 -86.8892 83° East 516 594 39,000  Level Indianapolis Center
11:07PM 39.6181 -86.7061 83° East 515 593 39,000  Level Indianapolis Center
11:08PM 39.6347 -86.5242 83° East 513 590 39,000  Level Indianapolis Center
11:09PM 39.6514 -86.3489 83° East 512 589 39,000  Level Indianapolis Center
11:10PM 39.6675 -86.1639 83° East 512 589 39,000  Level Indianapolis Center
11:11PM 39.6858 -85.9544 83° East 512 589 39,000  Level Indianapolis Center
11:12PM 39.7008 -85.7725 84° East 512 589 39,000  Level Indianapolis Center
11:13PM 39.7169 -85.5900 83° East 512 589 39,000  Level Indianapolis Center
11:14PM 39.7319 -85.4083 84° East 510 587 39,000  Level Indianapolis Center
11:15PM 39.7469 -85.2256 84° East 511 588 39,000  Level Indianapolis Center
11:16PM 39.7608 -85.0442 84° East 508 585 39,000  Level Indianapolis Center
11:17PM 39.7756 -84.8686 84° East 508 585 39,000  Level Indianapolis Center
11:18PM 39.7892 -84.6864 84° East 509 586 39,000  Level Indianapolis Center
11:19PM 39.8028 -84.5028 84° East 511 588 39,000  Level Indianapolis Center
11:20PM 39.8147 -84.3178 85° East 513 590 39,000  Level Indianapolis Center
11:21PM 39.8294 -84.1319 84° East 516 594 39,000  Level Indianapolis Center
11:22PM 39.8428 -83.9481 85° East 515 593 39,000  Level Indianapolis Center
11:23PM 39.8550 -83.7628 85° East 515 593 39,000  Level Indianapolis Center
11:24PM 39.8692 -83.5478 85° East 514 592 39,000  Level Indianapolis Center
11:25PM 39.8825 -83.3603 85° East 516 594 39,000  Level Indianapolis Center
11:26PM 39.8925 -83.1894 86° East 517 595 39,000  Level Indianapolis Center
11:27PM 39.9033 -83.0058 86° East 512 589 39,000  Level Indianapolis Center
11:28PM 39.9150 -82.8208 85° East 512 589 39,000  Level Indianapolis Center
11:29PM 39.9258 -82.6350 86° East 515 593 39,000  Level Indianapolis Center
11:30PM 39.9361 -82.4483 86° East 517 595 39,000  Level Indianapolis Center
11:31PM 39.9467 -82.2625 86° East 517 595 39,000  Level Indianapolis Center
11:32PM 39.9564 -82.0758 86° East 517 595 39,000  Level Indianapolis Center
11:33PM 39.9661 -81.8897 86° East 516 594 39,000  Level Indianapolis Center
11:34PM 39.9769 -81.6772 86° East 517 595 39,000  Level Indianapolis Center
11:35PM 39.9806 -81.4917 88° East 512 589 39,000  Level Indianapolis Center
11:36PM 39.9586 -81.3119 99° East 506 582 39,000  Level Indianapolis Center
11:37PM 39.9308 -81.0978 100° East 499 574 39,000  Level Indianapolis Center
11:38PM 39.9081 -80.9194 99° East 497 572 39,000  Level Indianapolis Center
11:39PM 39.8975 -80.8283 99° East 497 572 39,000 -300 Level Cleveland Center
11:40PM 39.8756 -80.6583 99° East 485 558 38,600 -660 Descending Cleveland Center
11:41PM 39.8522 -80.4844 100° East 491 565 37,700 -960 Descending Cleveland Center
11:42PM 39.8306 -80.3108 99° East 492 566 36,700 -960 Descending Cleveland Center
11:43PM 39.8069 -80.1406 100° East 486 559 35,800 -960 Descending Cleveland Center
11:44PM 39.7836 -79.9681 100° East 488 562 34,800 -1,140 Descending Cleveland Center
11:45PM 39.7589 -79.7964 101° East 487 560 33,600 -1,440 Descending Cleveland Center
11:46PM 39.7372 -79.6275 99° East 481 554 32,000 -1,560 Descending Cleveland Center
11:47PM 39.7139 -79.4669 101° East 463 533 30,500 -1,260 Descending Cleveland Center
11:48PM 39.6906 -79.3044 101° East 460 529 29,500 -1,200 Descending Cleveland Center
11:49PM 39.6633 -79.1144 100° East 452 520 28,100 -1,440 Descending Cleveland Center
11:50PM 39.6358 -78.9650 103° East 443 510 26,700 -1,140 Descending Cleveland Center
11:51PM 39.6053 -78.8397 108° East 438 504 25,900 -960 Descending Washington Center
11:52PM 39.5739 -78.6931 105° East 433 498 24,900 -1,080 Descending Washington Center
11:53PM 39.5419 -78.5517 106° East 422 486 23,800 -1,140 Descending Washington Center
11:54PM 39.5119 -78.4133 106° East 416 479 22,700 -1,500 Descending Washington Center
11:55PM 39.4817 -78.2778 106° East 401 461 20,900 -1,800 Descending Washington Center
11:56PM 39.4511 -78.1447 107° East 386 444 19,100 -1,680 Descending Washington Center
11:57PM 39.4206 -78.0175 107° East 381 438 17,600 -1,860 Descending Washington Center
11:58PM 39.3919 -77.8850 106° East 381 438 15,500 -1,320 Descending Washington Center
11:59PM 39.3942 -77.7589 89° East 360 414 15,000 -660 Descending Washington Center
12:00AM 39.4069 -77.6275 83° East 360 414 14,200 -900 Descending Washington Center
12:01AM 39.4153 -77.5014 85° East 360 414 13,200 -1,020 Descending Washington Center
12:02AM 39.4131 -77.3725 91° East 355 409 12,200 -1,140 Descending Washington Center
12:03AM 39.4000 -77.2667 99° East 344 396 11,300 -1,140 Descending Potomac TRACON
12:04AM 39.4000 -77.1500 90° East 331 381 10,300 -1,020 Descending Potomac TRACON
12:05AM 39.3833 -77.0333 100° East 318 366 9,300 -900 Descending Potomac TRACON
12:05AM 39.3833 -76.9500 90° East 295 339 8,600 -780 Descending Potomac TRACON
12:06AM 39.3667 -76.8500 102° East 259 298 7,900 -900 Descending Potomac TRACON
12:07AM 39.3500 -76.7667 104° East 253 291 6,900 -960 Descending Potomac TRACON
12:08AM 39.3500 -76.6833 90° East 245 282 6,100 -960 Descending Potomac TRACON
12:09AM 39.3167 -76.6000 117° Southeast 212 244 5,100 -1,200 Descending Potomac TRACON
12:10AM 39.2833 -76.5667 142° Southeast 182 209 3,800 -1,260 Descending Potomac TRACON
12:11AM 39.2500 -76.5500 159° South 150 173 2,800 -900 Descending Potomac TRACON
12:12AM 39.2000 -76.5500 180° South 135 155 2,000 -660 Descending Potomac TRACON
12:13AM 39.1833 -76.5667 218° Southwest 109 125 1,600 -600 Descending Potomac TRACON
12:14AM 39.1667 -76.6000 237° Southwest 114 131 1,000 -600 Descending Potomac TRACON
12:15AM 39.1667 -76.6333 270° West 125 144 400 -600 Descending Potomac TRACON
12:17AM 39.1667 -76.6667 237° Southwest  Level FlightAware Approximate
12:24AM 39.1754 -76.6683 237° Southwest  Level Estimated
12:25AM 39.1754 -76.6683 237° Southwest  Level Estimated